EW9507 Weather Reports


Display with metric or nautical units.
time (UTC)temp
F
wind
direction
speed
MPH
gust
MPH
rain 1hr
in
rain 24hr
in
rain mn
in
humidity
%
barometer
mb
20191122121625 9 138 0.0 0.0 0.00 0.00 0.00 88 846.9
20191122120115 10 139 0.0 0.0 0.00 0.00 0.00 89 846.8
20191122114744 11 134 0.0 0.0 0.00 0.00 0.00 89 846.8
20191122113122 11 148 0.0 0.0 0.00 0.00 0.00 89 846.9
20191122111648 12 144 0.0 6.0 0.00 0.00 0.00 89 847.1
20191122110127 11 139 0.0 0.0 0.00 0.00 0.00 89 847.3
20191122104546 10 138 0.0 0.0 0.00 0.00 0.00 89 847.4
20191122103112 10 138 0.0 0.0 0.00 0.00 0.00 89 847.3
20191122101647 10 138 0.0 7.0 0.00 0.00 0.00 89 847.4
20191122100110 10 138 0.0 5.0 0.00 0.00 0.00 89 847.5
20191122094609 9 134 0.0 0.0 0.00 0.00 0.00 88 847.7
20191122093112 10 134 0.0 0.0 0.00 0.00 0.00 88 847.6
20191122091536 10 134 0.0 8.0 0.00 0.00 0.00 88 847.9
20191122090105 11 144 0.0 1.0 0.00 0.00 0.00 88 848.0
20191122084605 12 153 0.0 0.0 0.00 0.00 0.00 87 848.1
20191122083046 13 153 0.0 0.0 0.00 0.00 0.00 87 848.0
20191122081539 14 157 0.0 2.0 0.00 0.00 0.00 88 848.0
20191122080033 14 144 0.0 2.0 0.00 0.00 0.00 89 848.1
20191122074527 16 128 0.0 1.0 0.00 0.00 0.00 85 848.1
20191122073025 17 171 0.0 4.0 0.00 0.00 0.00 89 848.1
20191122071524 16 174 0.0 0.0 0.00 0.00 0.00 88 848.4
20191122070007 17 187 0.0 1.0 0.00 0.00 0.00 87 848.5
20191122064506 18 175 0.0 1.0 0.00 0.00 0.00 87 848.6
20191122063010 18 178 0.0 10.0 0.00 0.00 0.00 88 848.6
20191122061507 18 187 1.0 10.0 0.00 0.00 0.00 88 848.7
20191122060001 17 186 0.0 6.0 0.00 0.00 0.00 89 848.8
20191122054501 17 180 0.0 9.0 0.00 0.00 0.00 90 848.9
20191122053003 13 156 0.0 1.0 0.00 0.00 0.00 92 849.1
20191122051741 12 142 0.0 0.0 0.00 0.00 0.00 89 849.3
20191122050146 11 142 0.0 0.0 0.00 0.00 0.00 89 849.4
20191122044706 10 142 0.0 0.0 0.00 0.00 0.00 88 849.3
20191122043228 12 143 0.0 0.0 0.00 0.00 0.00 89 849.3
20191122041622 12 143 0.0 0.0 0.00 0.00 0.00 87 849.5
20191122040205 13 138 0.0 5.0 0.00 0.00 0.00 88 849.5
20191122034627 14 138 0.0 7.0 0.00 0.00 0.00 89 849.4
20191122033354 14 138 0.0 8.0 0.00 0.00 0.00 89 849.2
20191122031717 13 139 0.0 3.0 0.00 0.00 0.00 89 849.3
20191122030138 12 139 0.0 0.0 0.00 0.00 0.00 88 849.2
20191122024639 13 140 0.0 0.0 0.00 0.00 0.00 86 849.1
20191122023130 13 139 0.0 1.0 0.00 0.00 0.00 88 848.9
20191122021606 14 140 0.0 0.0 0.00 0.00 0.00 85 849.0
20191122020123 16 140 0.0 0.0 0.00 0.00 0.00 87 848.8
20191122014656 16 145 0.0 1.0 0.00 0.00 0.00 89 848.9
20191122013155 15 134 0.0 0.0 0.00 0.00 0.00 90 849.0
20191122011649 14 134 0.0 6.0 0.00 0.00 0.00 89 849.0
20191122010146 15 156 0.0 0.0 0.00 0.00 0.00 88 849.1
20191122004619 15 157 0.0 0.0 0.00 0.00 0.00 89 848.9
20191122003214 15 157 0.0 0.0 0.00 0.00 0.00 86 848.8
20191122001559 16 157 0.0 3.0 0.00 0.00 0.00 84 848.7
20191122000109 19 157 0.0 0.0 0.00 0.00 0.00 83 848.7
20191121234551 19 163 0.0 4.0 0.00 0.00 0.00 80 848.8
20191121233123 22 176 0.0 0.0 0.00 0.00 0.00 77 848.6
20191121231559 24 176 0.0 0.0 0.00 0.00 0.00 75 848.8
20191121230106 26 176 0.0 1.0 0.00 0.00 0.00 73 848.9
20191121224607 26 183 1.0 7.0 0.00 0.00 0.00 71 849.0
20191121223139 28 188 1.0 6.0 0.00 0.00 0.00 65 849.0
20191121221557 28 196 0.0 1.0 0.00 0.00 0.00 61 849.1
20191121220055 29 188 0.0 1.0 0.00 0.00 0.00 55 849.0
20191121214607 29 214 0.0 4.0 0.00 0.00 0.00 59 849.0
20191121213110 29 209 0.0 2.0 0.00 0.00 0.00 60 849.0
20191121211532 29 218 0.0 0.0 0.00 0.00 0.00 65 849.1
20191121210048 28 226 0.0 0.0 0.00 0.00 0.00 68 849.2
20191121204644 28 223 0.0 0.0 0.00 0.00 0.00 68 849.3
20191121203027 28 211 0.0 0.0 0.00 0.00 0.00 69 849.5
20191121201548 27 229 0.0 0.0 0.00 0.00 0.00 72 849.7
20191121200024 27 226 0.0 0.0 0.00 0.00 0.00 73 849.8
20191121194537 26 249 0.0 0.0 0.00 0.00 0.00 74 849.9
20191121193033 26 200 0.0 0.0 0.00 0.00 0.00 75 849.9
20191121191521 26 229 0.0 0.0 0.00 0.00 0.00 75 849.8
20191121190010 26 225 0.0 0.0 0.00 0.00 0.00 76 850.1
20191121184517 25 213 0.0 0.0 0.00 0.00 0.00 76 850.3
20191121183010 25 230 0.0 0.0 0.00 0.00 0.00 79 850.3
20191121181753 24 281 0.0 0.0 0.00 0.00 0.00 80 850.5
20191121180205 24 301 0.0 0.0 0.00 0.00 0.00 81 850.7
20191121174656 23 301 0.0 0.0 0.00 0.00 0.00 82 850.9
20191121173132 23 301 0.0 0.0 0.00 0.00 0.00 85 850.9
20191121171717 21 306 0.0 0.0 0.00 0.00 0.00 85 851.0
20191121170158 22 329 0.0 0.0 0.00 0.00 0.00 86 850.9
20191121164614 21 266 0.0 0.0 0.00 0.00 0.00 87 851.0
20191121163111 20 5 0.0 0.0 0.00 0.00 0.00 87 850.9
20191121161614 20 309 0.0 0.0 0.00 0.00 0.00 88 850.9
20191121160105 20 355 0.0 0.0 0.00 0.00 0.00 88 850.9
20191121154541 20 349 0.0 0.0 0.00 0.00 0.00 88 851.1
20191121153057 20 350 0.0 3.0 0.00 0.00 0.00 88 851.2
20191121151538 21 350 0.0 0.0 0.00 0.00 0.00 88 851.2
20191121150042 21 355 0.0 0.0 0.00 0.00 0.00 89 851.1
20191121144539 21 355 0.0 0.0 0.00 0.00 0.00 89 851.0
20191121143032 21 349 0.0 2.0 0.00 0.00 0.00 89 850.9
20191121141621 21 349 0.0 0.0 0.00 0.00 0.00 90 850.6
20191121140106 21 360 0.0 0.0 0.00 0.00 0.00 90 850.6
20191121134548 21 5 0.0 8.0 0.00 0.00 0.00 90 850.5
20191121133034 21 360 0.0 1.0 0.00 0.00 0.00 90 850.2
20191121131528 21 348 0.0 9.0 0.00 0.00 0.00 90 850.0
20191121130010 21 355 0.0 1.0 0.00 0.00 0.00 90 849.6
20191121124508 21 360 0.0 1.0 0.00 0.00 0.00 90 849.6
20191121123009 21 339 0.0 0.0 0.00 0.00 0.00 90 849.7